Weather History for Laurens, SC

Change the Weather History Date:

Monday, March 4, 2013

  Actual Average (KGSP) Record (KGSP)
Temperature  
Mean Temperature 38 °F 50 °F  
Max Temperature 53 °F 61 °F 82 °F (1976)
Min Temperature 23 °F 39 °F 14 °F (1943)
Degree Days  
Heating Degree Days 27 15  
Month to date heating degree days 63  
Since 1 July heating degree days 2512  
Cooling Degree Days 0 0  
Month to date cooling degree days 0  
Year to date cooling degree days 0  
Moisture  
Dew Point 21 °F    
Average Humidity 50    
Maximum Humidity 86    
Minimum Humidity 24    
Precipitation  
Precipitation 0.00 in 0.14 in 2.27 in (1966)
Month to date precipitation 0.58  
Year to date precipitation 8.37  
Snow  
Snow 0.00 in 0.10 in T in (1986)
Month to date snowfall 0.2  
Since 1 July snowfall 4.0  
Snow Depth -    
Sea Level Pressure  
Sea Level Pressure 30.10 in    
Wind  
Wind Speed 3 mph (West)    
Max Wind Speed 10 mph    
Max Gust Speed -    
Visibility 10 miles    
Events      
T = Trace of Precipitation, MM = Missing Value Source: NWS Daily Summary

Daily Weather History Graph

Daily Weather History Graph

Search for Another Location

Airport:

Trip Planner

Search our weather history database for the weather conditions in past years. The results will help you decide how hot, cold, wet, or windy it might be!

Date:

Astronomy

Mar. 04, 2013 Rise Set
Actual Time 6:52 AM EST 6:26 PM EST
Civil Twilight 6:27 AM EST 6:51 PM EST
Nautical Twilight 5:58 AM EST 7:20 PM EST
Astronomical Twilight 5:29 AM EST 7:50 PM EST
Moon 12:50 AM EST (3/4) 11:17 AM EST (3/4)
Length of Visible Light 12h 24m
Length of Day
11h 33m
Waning Gibbous, 52% of the Moon is Illuminated
Mar 4
Waning Gibbous
Mar 4
Last Quarter
Mar 11
New
Mar 19
First Quarter
Mar 27
Full

Hourly Weather History & Observations

Time (EST) Temp. Windchill Dew Point Humidity Pressure Visibility Wind Dir Wind Speed Gust Speed Precip Events Conditions
12:15 AM 30.2 °F - 19.4 °F 64% 30.04 in 10.0 mi Calm Calm - N/A   Clear
12:35 AM 30.2 °F 26.7 °F 19.4 °F 64% 30.04 in 10.0 mi WNW 3.5 mph - N/A   Clear
12:55 AM 30.2 °F 25.4 °F 19.4 °F 64% 30.05 in 10.0 mi West 4.6 mph - N/A   Clear
1:35 AM 28.4 °F 22.2 °F 21.2 °F 74% 30.06 in 10.0 mi NW 5.8 mph - N/A   Clear
1:55 AM 28.4 °F 23.3 °F 19.4 °F 69% 30.06 in 10.0 mi NW 4.6 mph - N/A   Clear
2:15 AM 28.4 °F 24.6 °F 19.4 °F 69% 30.06 in 10.0 mi NNW 3.5 mph - N/A   Clear
2:35 AM 26.6 °F - 21.2 °F 80% 30.07 in 10.0 mi Calm Calm - N/A   Clear
2:55 AM 26.6 °F - 19.4 °F 74% 30.07 in 10.0 mi Calm Calm - N/A   Clear
3:15 AM 26.6 °F - 21.2 °F 80% 30.07 in 10.0 mi Calm Calm - N/A   Clear
3:35 AM 26.6 °F - 21.2 °F 80% 30.07 in 10.0 mi Calm Calm - N/A   Clear
3:55 AM 26.6 °F 22.6 °F 19.4 °F 74% 30.08 in 10.0 mi West 3.5 mph - N/A   Clear
4:15 AM 26.6 °F - 19.4 °F 74% 30.09 in 10.0 mi Calm Calm - N/A   Clear
4:35 AM 26.6 °F 22.6 °F 19.4 °F 74% 30.09 in 10.0 mi WNW 3.5 mph - N/A   Clear
4:55 AM 24.8 °F 19.1 °F 19.4 °F 80% 30.11 in 10.0 mi WSW 4.6 mph - N/A   Clear
5:15 AM 26.6 °F 19.1 °F 19.4 °F 74% 30.11 in 10.0 mi West 6.9 mph - N/A   Clear
5:35 AM 26.6 °F 18.2 °F 19.4 °F 74% 30.12 in 10.0 mi West 8.1 mph - N/A   Clear
6:15 AM 26.6 °F 20.0 °F 17.6 °F 69% 30.13 in 10.0 mi WNW 5.8 mph - N/A   Clear
6:55 AM 23.0 °F - 19.4 °F 86% 30.13 in 10.0 mi Calm Calm - N/A   Clear
7:15 AM 24.8 °F - 21.2 °F 86% 30.14 in 10.0 mi Calm Calm - N/A   Clear
7:35 AM 28.4 °F - 21.2 °F 74% 30.14 in 10.0 mi Calm Calm - N/A   Clear
7:55 AM 30.2 °F 26.7 °F 21.2 °F 69% 30.15 in 10.0 mi NW 3.5 mph - N/A   Clear
8:15 AM 30.2 °F 26.7 °F 23.0 °F 75% 30.15 in 10.0 mi NNW 3.5 mph - N/A   Clear
8:35 AM 33.8 °F 28.6 °F 21.2 °F 60% 30.16 in 10.0 mi NW 5.8 mph - N/A   Clear
8:55 AM 35.6 °F 31.7 °F 19.4 °F 52% 30.16 in 10.0 mi NW 4.6 mph - N/A   Clear
9:15 AM 37.4 °F 32.8 °F 19.4 °F 48% 30.17 in 10.0 mi NW 5.8 mph - N/A   Clear
9:35 AM 39.2 °F 35.0 °F 19.4 °F 45% 30.17 in 10.0 mi WNW 5.8 mph - N/A   Clear
9:55 AM 41.0 °F 37.1 °F 19.4 °F 42% 30.17 in 10.0 mi NW 5.8 mph - N/A   Clear
10:15 AM 41.0 °F 39.0 °F 19.4 °F 42% 30.17 in 10.0 mi West 3.5 mph - N/A   Clear
10:35 AM 42.8 °F - 19.4 °F 39% 30.16 in 10.0 mi Calm Calm - N/A   Clear
10:55 AM 44.6 °F 42.2 °F 19.4 °F 37% 30.16 in 10.0 mi NW 4.6 mph - N/A   Clear
11:15 AM 44.6 °F - 19.4 °F 37% 30.16 in 10.0 mi Calm Calm - N/A   Clear
11:35 AM 46.4 °F - 19.4 °F 34% 30.16 in 10.0 mi Calm Calm - N/A   Clear
11:55 AM 46.4 °F 43.5 °F 19.4 °F 34% 30.14 in 10.0 mi NNW 5.8 mph - N/A   Clear
12:15 PM 46.4 °F - 17.6 °F 32% 30.13 in 10.0 mi Calm Calm - N/A   Clear
12:35 PM 50.0 °F - 19.4 °F 30% 30.14 in 10.0 mi WNW 8.1 mph - N/A   Clear
12:55 PM 48.2 °F - 17.6 °F 30% 30.12 in 10.0 mi West 8.1 mph - N/A   Clear
1:55 PM 51.8 °F - 17.6 °F 26% 30.09 in 10.0 mi SSW 6.9 mph - N/A   Clear
2:15 PM 53.6 °F - 17.6 °F 24% 30.08 in 10.0 mi West 4.6 mph - N/A   Clear
2:55 PM 53.6 °F - 19.4 °F 26% 30.08 in 10.0 mi West 6.9 mph - N/A   Clear
3:15 PM 53.6 °F - 19.4 °F 26% 30.06 in 10.0 mi SW 6.9 mph - N/A   Clear
3:35 PM 53.6 °F - 17.6 °F 24% 30.06 in 10.0 mi SW 6.9 mph - N/A   Clear
3:55 PM 53.6 °F - 17.6 °F 24% 30.06 in 10.0 mi SW 10.4 mph - N/A   Clear
4:55 PM 53.6 °F - 19.4 °F 26% 30.06 in 10.0 mi WSW 6.9 mph - N/A   Scattered Clouds
5:15 PM 53.6 °F - 21.2 °F 28% 30.06 in 10.0 mi WSW 4.6 mph - N/A   Scattered Clouds
5:55 PM 53.6 °F - 19.4 °F 26% 30.06 in 10.0 mi SW 5.8 mph - N/A   Clear
6:15 PM 51.8 °F - 19.4 °F 28% 30.06 in 10.0 mi Calm Calm - N/A   Clear
6:35 PM 50.0 °F - 23.0 °F 35% 30.07 in 10.0 mi Calm Calm - N/A   Clear
6:55 PM 48.2 °F - 24.8 °F 40% 30.08 in 10.0 mi Calm Calm - N/A   Clear
7:15 PM 48.2 °F - 26.6 °F 43% 30.08 in 10.0 mi Calm Calm - N/A   Clear
7:35 PM 46.4 °F - 24.8 °F 43% 30.08 in 10.0 mi Calm Calm - N/A   Clear
7:55 PM 46.4 °F - 24.8 °F 43% 30.08 in 10.0 mi Calm Calm - N/A   Clear
8:15 PM 46.4 °F 45.2 °F 24.8 °F 43% 30.08 in 10.0 mi South 3.5 mph - N/A   Clear
8:35 PM 46.4 °F 45.2 °F 26.6 °F 46% 30.08 in 10.0 mi SSE 3.5 mph - N/A   Clear
8:55 PM 46.4 °F 44.3 °F 23.0 °F 40% 30.08 in 10.0 mi South 4.6 mph - N/A   Clear
9:15 PM 46.4 °F 43.5 °F 23.0 °F 40% 30.08 in 10.0 mi South 5.8 mph - N/A   Clear
9:35 PM 46.4 °F 43.5 °F 23.0 °F 40% 30.07 in 10.0 mi South 5.8 mph - N/A   Clear
9:55 PM 46.4 °F 43.5 °F 23.0 °F 40% 30.08 in 10.0 mi South 5.8 mph - N/A   Clear
10:35 PM 46.4 °F 44.3 °F 23.0 °F 40% 30.08 in 10.0 mi South 4.6 mph - N/A   Clear
10:55 PM 46.4 °F 45.2 °F 23.0 °F 40% 30.08 in 10.0 mi South 3.5 mph - N/A   Clear
11:15 PM 46.4 °F 43.5 °F 23.0 °F 40% 30.08 in 10.0 mi SSW 5.8 mph - N/A   Clear
11:35 PM 44.6 °F 41.4 °F 24.8 °F 46% 30.08 in 10.0 mi SSW 5.8 mph - N/A   Scattered Clouds
11:55 PM 44.6 °F 41.4 °F 24.8 °F 46% 30.08 in 10.0 mi South 5.8 mph - N/A   Scattered Clouds